GW5431 Weather Reports


time (UTC)temp
C
wind
direction
speed
KPH
gust
KPH
rain 1hr
cm
rain 24hr
cm
rain mn
cm
humidity
%
barometer
mb
20260510220455 28 110 1.6 1.6 0.00 0.00 0.00 45 1015.1
20260510215952 28 147 1.6 1.6 0.00 0.00 0.00 44 1015.2
20260510215450 28 142 0.0 0.0 0.00 0.00 0.00 48 1015.2
20260510214948 28 143 0.0 1.6 0.00 0.00 0.00 45 1015.2
20260510214444 27 139 0.0 0.0 0.00 0.00 0.00 46 1015.1
20260510213941 28 147 1.6 3.2 0.00 0.00 0.00 45 1015.2
20260510213438 27 144 0.0 1.6 0.00 0.00 0.00 48 1015.5
20260510212934 28 158 3.2 3.2 0.00 0.00 0.00 47 1015.4
20260510212432 28 141 0.0 0.0 0.00 0.00 0.00 47 1015.4
20260510211928 27 153 0.0 1.6 0.00 0.00 0.00 49 1015.4
20260510211425 27 148 1.6 1.6 0.00 0.00 0.00 49 1015.5
20260510210925 27 133 1.6 1.6 0.00 0.00 0.00 48 1015.6
20260510210420 28 123 3.2 3.2 0.00 0.00 0.00 48 1015.6
20260510205920 27 150 0.0 0.0 0.00 0.00 0.00 47 1015.5
20260510205415 27 141 0.0 1.6 0.00 0.00 0.00 47 1015.6
20260510204911 28 157 1.6 1.6 0.00 0.00 0.00 49 1015.4
20260510204408 28 143 1.6 3.2 0.00 0.00 0.00 45 1015.3
20260510203904 28 51 3.2 3.2 0.00 0.00 0.00 46 1015.5
20260510203402 28 197 3.2 4.8 0.00 0.00 0.00 44 1015.6
20260510202856 29 119 0.0 1.6 0.00 0.00 0.00 44 1015.5
20260510202352 28 129 1.6 1.6 0.00 0.00 0.00 48 1015.6
20260510201849 28 154 0.0 1.6 0.00 0.00 0.00 46 1015.6
20260510201346 28 156 1.6 1.6 0.00 0.00 0.00 46 1015.8
20260510200843 28 148 3.2 3.2 0.00 0.00 0.00 45 1016.0
20260510200342 28 152 0.0 1.6 0.00 0.00 0.00 45 1015.8
20260510195836 28 168 1.6 1.6 0.00 0.00 0.00 44 1016.2
20260510195333 28 287 4.8 4.8 0.00 0.00 0.00 47 1016.1
20260510194828 28 163 1.6 3.2 0.00 0.00 0.00 47 1015.8
20260510194325 27 146 0.0 1.6 0.00 0.00 0.00 47 1016.0
20260510193820 28 94 1.6 3.2 0.00 0.00 0.00 46 1016.0
20260510193315 28 268 1.6 3.2 0.00 0.00 0.00 49 1016.1
20260510192812 28 168 1.6 3.2 0.00 0.00 0.00 49 1016.1
20260510192307 28 148 0.0 0.0 0.00 0.00 0.00 48 1016.1
20260510191803 28 144 1.6 1.6 0.00 0.00 0.00 50 1016.2
20260510191259 28 145 1.6 1.6 0.00 0.00 0.00 50 1016.2
20260510190758 27 120 1.6 1.6 0.00 0.00 0.00 48 1016.2
20260510190254 27 159 1.6 1.6 0.00 0.00 0.00 49 1016.2
20260510185750 26 142 0.0 1.6 0.00 0.00 0.00 52 1016.2
20260510185249 26 138 0.0 0.0 0.00 0.00 0.00 52 1016.2
20260510184745 27 133 1.6 1.6 0.00 0.00 0.00 52 1016.5
20260510184242 26 108 1.6 3.2 0.00 0.00 0.00 50 1016.6
20260510183737 26 333 4.8 4.8 0.00 0.00 0.00 51 1016.3
20260510183232 26 135 1.6 1.6 0.00 0.00 0.00 51 1016.7
20260510182729 26 177 3.2 3.2 0.00 0.00 0.00 52 1016.8
20260510182224 26 102 3.2 3.2 0.00 0.00 0.00 55 1016.6
20260510181721 25 143 1.6 1.6 0.00 0.00 0.00 57 1016.7
20260510181219 25 144 0.0 1.6 0.00 0.00 0.00 59 1016.6
20260510180714 25 124 1.6 1.6 0.00 0.00 0.00 56 1016.7
20260510180212 25 123 0.0 1.6 0.00 0.00 0.00 59 1016.9
20260510175708 26 124 1.6 1.6 0.00 0.00 0.00 53 1017.0
20260510175204 27 114 0.0 0.0 0.00 0.00 0.00 52 1016.8
20260510174701 27 160 3.2 3.2 0.00 0.00 0.00 52 1017.2
20260510174159 27 135 0.0 0.0 0.00 0.00 0.00 56 1017.1
20260510173654 26 108 3.2 3.2 0.00 0.00 0.00 56 1017.0
20260510173151 26 140 0.0 0.0 0.00 0.00 0.00 53 1017.2
20260510172646 26 193 1.6 3.2 0.00 0.00 0.00 61 1017.1
20260510172143 25 79 1.6 3.2 0.00 0.00 0.00 60 1017.2
20260510171639 25 146 1.6 1.6 0.00 0.00 0.00 61 1017.3
20260510171137 25 132 1.6 1.6 0.00 0.00 0.00 61 1017.2
20260510170633 26 143 0.0 1.6 0.00 0.00 0.00 63 1017.1
20260510170130 25 135 0.0 0.0 0.00 0.00 0.00 62 1017.2
20260510165625 25 130 3.2 4.8 0.00 0.00 0.00 64 1017.2
20260510165121 26 165 3.2 3.2 0.00 0.00 0.00 65 1017.2
20260510164619 26 124 1.6 3.2 0.00 0.00 0.00 63 1017.4
20260510164115 26 84 3.2 3.2 0.00 0.00 0.00 61 1017.4
20260510163611 26 166 3.2 4.8 0.00 0.00 0.00 64 1017.4
20260510163107 25 139 1.6 1.6 0.00 0.00 0.00 64 1017.5
20260510162602 25 157 1.6 1.6 0.00 0.00 0.00 67 1017.4
20260510162059 25 129 1.6 1.6 0.00 0.00 0.00 67 1017.5
20260510161554 25 109 1.6 1.6 0.00 0.00 0.00 68 1017.5
20260510161052 25 98 0.0 1.6 0.00 0.00 0.00 72 1017.5
20260510160549 24 138 1.6 1.6 0.00 0.00 0.00 73 1017.4
20260510160048 23 140 0.0 0.0 0.00 0.00 0.00 76 1017.6
20260510155545 23 141 0.0 0.0 0.00 0.00 0.00 78 1017.4
20260510155041 23 156 1.6 3.2 0.00 0.00 0.00 77 1017.6
20260510154537 23 146 1.6 1.6 0.00 0.00 0.00 78 1017.3
20260510154032 23 112 0.0 0.0 0.00 0.00 0.00 79 1017.2
20260510153527 23 123 1.6 1.6 0.00 0.00 0.00 78 1017.3
20260510153025 22 117 1.6 1.6 0.00 0.00 0.00 78 1017.3
20260510152522 21 143 0.0 1.6 0.00 0.00 0.00 84 1017.2
20260510152018 21 139 0.0 1.6 0.00 0.00 0.00 88 1017.3
20260510151515 20 129 1.6 1.6 0.00 0.00 0.00 88 1017.2
20260510151012 20 132 3.2 3.2 0.00 0.00 0.00 87 1017.4
20260510150507 20 128 0.0 0.0 0.00 0.00 0.00 88 1017.2
20260510150003 20 134 0.0 0.0 0.00 0.00 0.00 92 1017.3
20260510145500 20 141 0.0 0.0 0.00 0.00 0.00 92 1017.2
20260510144956 19 136 0.0 1.6 0.00 0.00 0.00 93 1017.2
20260510144453 19 126 1.6 1.6 0.00 0.00 0.00 93 1017.4
20260510143949 19 124 0.0 1.6 0.00 0.00 0.00 93 1017.3
20260510143445 19 144 1.6 3.2 0.00 0.00 0.00 94 1017.3
20260510142942 18 130 0.0 0.0 0.00 0.00 0.00 96 1017.1
20260510142438 18 141 0.0 0.0 0.00 0.00 0.00 98 1017.2
20260510141935 18 137 0.0 0.0 0.00 0.00 0.00 98 1017.2
20260510141432 18 158 0.0 1.6 0.00 0.00 0.00 99 1017.3
20260510140929 18 139 0.0 0.0 0.00 0.00 0.00 98 1017.4
20260510140426 18 142 0.0 0.0 0.00 0.00 0.00 99 1017.3
20260510135924 18 137 1.6 1.6 0.00 0.00 0.00 98 1017.2
20260510135421 18 135 0.0 0.0 0.00 0.00 0.00 99 1017.3
20260510134918 17 131 0.0 0.0 0.00 0.00 0.00 99 1017.0
20260510134415 17 123 0.0 0.0 0.00 0.00 0.00 99 1017.2
20260510133911 17 99 1.6 1.6 0.00 0.00 0.00 99 1016.9
20260510133407 17 129 1.6 1.6 0.00 0.00 0.00 99 1016.8
20260510132903 17 128 0.0 0.0 0.00 0.00 0.00 99 1016.8
20260510132401 17 126 0.0 0.0 0.00 0.00 0.00 99 1016.9
20260510131857 17 146 0.0 0.0 0.00 0.00 0.00 99 1016.8
20260510131355 17 141 0.0 0.0 0.00 0.00 0.00 99 1016.9
20260510130851 17 141 1.6 1.6 0.00 0.00 0.00 99 1016.9
20260510130349 17 155 0.0 0.0 0.00 0.00 0.00 99 1016.9
20260510125845 17 132 0.0 0.0 0.00 0.00 0.00 99 1016.8
20260510125341 16 132 0.0 0.0 0.00 0.00 0.00 99 1016.9
20260510124838 17 144 0.0 0.0 0.00 0.00 0.00 99 1016.7
20260510124335 17 132 0.0 0.0 0.00 0.00 0.00 99 1016.6
20260510123831 16 139 0.0 0.0 0.00 0.00 0.00 99 1016.1
20260510123326 16 141 0.0 0.0 0.00 0.00 0.00 99 1016.1
20260510122823 16 138 0.0 0.0 0.00 0.00 0.00 99 1016.0
20260510122319 16 136 0.0 0.0 0.00 0.00 0.00 99 1016.2
20260510121816 16 134 0.0 0.0 0.00 0.00 0.00 99 1015.9
20260510121314 16 137 0.0 0.0 0.00 0.00 0.00 99 1016.2
20260510120810 16 135 0.0 1.6 0.00 0.00 0.00 99 1016.0
20260510120307 16 139 0.0 0.0 0.00 0.00 0.00 99 1016.1
20260510115803 16 140 0.0 0.0 0.00 0.00 0.00 99 1016.2
20260510115301 16 143 0.0 0.0 0.00 0.00 0.00 99 1016.0
20260510114755 16 139 0.0 0.0 0.00 0.00 0.00 99 1016.0
20260510114253 15 136 0.0 0.0 0.00 0.00 0.00 99 1015.6
20260510113748 15 135 0.0 0.0 0.00 0.00 0.00 99 1015.9
20260510113246 15 132 0.0 0.0 0.00 0.00 0.00 99 1015.7
20260510112742 15 130 0.0 0.0 0.00 0.00 0.00 99 1015.4
20260510112239 15 134 0.0 0.0 0.00 0.00 0.00 99 1015.4
20260510111734 15 120 0.0 0.0 0.00 0.00 0.00 99 1015.3
20260510111232 15 139 0.0 0.0 0.00 0.00 0.00 99 1015.5
20260510110731 15 136 0.0 0.0 0.00 0.00 0.00 99 1015.1
20260510110230 15 134 0.0 0.0 0.00 0.00 0.00 99 1015.1
20260510105729 15 136 0.0 0.0 0.00 0.00 0.00 99 1015.0
20260510105224 16 141 0.0 0.0 0.00 0.00 0.00 99 1015.2
20260510104721 16 137 0.0 0.0 0.00 0.00 0.00 99 1014.9
20260510104218 16 136 0.0 0.0 0.00 0.00 0.00 99 1014.9
20260510103714 16 133 0.0 0.0 0.00 0.00 0.00 99 1014.6
20260510103212 16 136 0.0 0.0 0.00 0.00 0.00 99 1014.5
20260510102711 16 136 0.0 0.0 0.00 0.00 0.00 99 1014.6
20260510102207 16 137 0.0 0.0 0.00 0.00 0.00 99 1014.5
20260510101705 16 135 0.0 0.0 0.00 0.00 0.00 99 1014.4
20260510101203 16 134 0.0 0.0 0.00 0.00 0.00 99 1014.5
20260510100659 16 135 0.0 0.0 0.00 0.00 0.00 99 1014.4
20260510100157 16 136 0.0 0.0 0.00 0.00 0.00 99 1014.4
20260510095652 16 136 0.0 0.0 0.00 0.00 0.00 99 1014.5
20260510095147 16 132 1.6 1.6 0.00 0.00 0.00 99 1014.3
20260510094646 16 141 0.0 0.0 0.00 0.00 0.00 99 1014.1
20260510094142 16 135 0.0 0.0 0.00 0.00 0.00 99 1014.2
20260510093638 16 135 0.0 0.0 0.00 0.00 0.00 99 1014.1
20260510093136 16 136 0.0 0.0 0.00 0.00 0.00 99 1014.1
20260510092632 16 136 0.0 0.0 0.00 0.00 0.00 99 1014.1
20260510092127 16 138 0.0 0.0 0.00 0.00 0.00 99 1014.1
20260510091623 16 138 0.0 0.0 0.00 0.00 0.00 99 1014.1
20260510091120 16 138 0.0 0.0 0.00 0.00 0.00 99 1014.2
20260510090616 15 136 0.0 0.0 0.00 0.00 0.00 99 1014.2
20260510090112 15 135 0.0 0.0 0.00 0.00 0.00 99 1014.3
20260510085607 15 134 0.0 0.0 0.00 0.00 0.00 99 1014.0
20260510085103 15 131 0.0 0.0 0.00 0.00 0.00 99 1014.1
20260510084600 15 136 0.0 0.0 0.00 0.00 0.00 99 1013.9
20260510084057 15 136 0.0 0.0 0.00 0.00 0.00 99 1013.8
20260510083553 14 136 0.0 0.0 0.00 0.00 0.00 99 1013.8
20260510083049 14 136 0.0 0.0 0.00 0.00 0.00 99 1013.8
20260510082547 14 136 0.0 0.0 0.00 0.00 0.00 99 1013.8
20260510082042 14 136 0.0 0.0 0.00 0.00 0.00 99 1013.8
20260510081537 14 136 0.0 0.0 0.00 0.00 0.00 99 1013.7
20260510081033 14 135 0.0 0.0 0.00 0.00 0.00 98 1013.6
20260510080532 14 132 0.0 0.0 0.00 0.00 0.00 98 1013.6
20260510080029 14 133 0.0 0.0 0.00 0.00 0.00 98 1013.4
20260510075526 14 133 0.0 0.0 0.00 0.00 0.00 98 1013.3
20260510075023 14 133 0.0 0.0 0.00 0.00 0.00 98 1013.4
20260510074521 14 134 0.0 0.0 0.00 0.00 0.00 98 1013.2
20260510074016 15 137 0.0 0.0 0.00 0.00 0.00 98 1013.2
20260510073512 15 137 0.0 0.0 0.00 0.00 0.00 98 1013.2
20260510073009 15 134 0.0 0.0 0.00 0.00 0.00 98 1013.1
20260510072506 15 135 0.0 0.0 0.00 0.00 0.00 98 1013.2
20260510072001 15 134 0.0 0.0 0.00 0.00 0.00 98 1013.2
20260510071458 15 133 0.0 0.0 0.00 0.00 0.00 98 1013.2
20260510070956 15 140 0.0 0.0 0.00 0.00 0.00 98 1013.1
20260510070453 15 140 0.0 0.0 0.00 0.00 0.00 98 1013.2
20260510065948 15 141 0.0 0.0 0.00 0.00 0.00 98 1013.2
20260510065446 15 141 0.0 0.0 0.00 0.00 0.00 98 1013.1
20260510064941 15 142 0.0 0.0 0.00 0.00 0.00 98 1013.3
20260510064439 15 139 0.0 0.0 0.00 0.00 0.00 98 1013.2
20260510063936 15 140 0.0 0.0 0.00 0.00 0.00 98 1013.2
20260510063432 15 139 0.0 0.0 0.00 0.00 0.00 98 1013.2
20260510062930 15 140 0.0 0.0 0.00 0.00 0.00 98 1013.1
20260510062425 15 140 0.0 0.0 0.00 0.00 0.00 98 1013.3
20260510061921 15 140 0.0 0.0 0.00 0.00 0.00 98 1013.4
20260510061418 15 141 0.0 0.0 0.00 0.00 0.00 98 1013.4
20260510060913 15 140 0.0 0.0 0.00 0.00 0.00 98 1013.5
20260510060410 15 140 0.0 0.0 0.00 0.00 0.00 98 1013.5
20260510055907 15 141 0.0 0.0 0.00 0.00 0.00 98 1013.4
20260510055402 15 141 0.0 0.0 0.00 0.00 0.00 98 1013.2
20260510054900 15 141 0.0 0.0 0.00 0.00 0.00 98 1013.5
20260510054356 15 140 0.0 0.0 0.00 0.00 0.00 98 1013.6
20260510053851 15 140 0.0 0.0 0.00 0.00 0.00 98 1013.5
20260510053347 15 140 0.0 0.0 0.00 0.00 0.00 98 1013.4
20260510052844 15 140 0.0 0.0 0.00 0.00 0.00 98 1013.6
20260510052339 15 140 0.0 0.0 0.00 0.00 0.00 98 1013.4
20260510051836 15 140 0.0 0.0 0.00 0.00 0.00 98 1013.5
20260510051333 15 140 0.0 0.0 0.00 0.00 0.00 98 1013.5
20260510050830 15 140 0.0 0.0 0.00 0.00 0.00 97 1013.7
20260510050326 16 140 0.0 0.0 0.00 0.00 0.00 97 1013.5
20260510045824 15 140 0.0 0.0 0.00 0.00 0.00 98 1013.6
20260510045320 15 140 0.0 0.0 0.00 0.00 0.00 97 1013.6
20260510044817 15 140 0.0 0.0 0.00 0.00 0.00 97 1013.4
20260510044313 16 140 0.0 0.0 0.00 0.00 0.00 97 1013.4
20260510043810 16 140 0.0 0.0 0.00 0.00 0.00 97 1013.7
20260510043306 16 140 0.0 0.0 0.00 0.00 0.00 97 1013.7
20260510042803 15 140 0.0 0.0 0.00 0.00 0.00 97 1013.6
20260510042259 15 139 0.0 0.0 0.00 0.00 0.00 97 1013.8
20260510041755 16 140 0.0 0.0 0.00 0.00 0.00 97 1013.6
20260510041254 16 140 0.0 0.0 0.00 0.00 0.00 97 1013.7
20260510040751 16 140 0.0 0.0 0.00 0.00 0.00 97 1013.9
20260510040247 16 141 0.0 0.0 0.00 0.00 0.00 97 1013.6
20260510035743 16 141 0.0 0.0 0.00 0.00 0.00 97 1013.6
20260510035238 16 140 0.0 0.0 0.00 0.00 0.00 97 1013.7
20260510034734 16 140 0.0 0.0 0.00 0.00 0.00 96 1013.8
20260510034233 16 140 0.0 0.0 0.00 0.00 0.00 96 1013.9
20260510033729 16 139 0.0 0.0 0.00 0.00 0.00 96 1013.8
20260510033227 16 140 0.0 0.0 0.00 0.00 0.00 96 1013.7
20260510032722 16 141 0.0 0.0 0.00 0.00 0.00 96 1013.7
20260510032218 16 140 0.0 0.0 0.00 0.00 0.00 96 1013.6
20260510031713 16 140 0.0 0.0 0.00 0.00 0.00 96 1013.7
20260510031210 16 140 0.0 0.0 0.00 0.00 0.00 95 1013.5
20260510030709 16 140 0.0 0.0 0.00 0.00 0.00 95 1013.7
20260510030207 16 140 0.0 0.0 0.00 0.00 0.00 95 1013.6
20260510025705 17 140 0.0 0.0 0.00 0.00 0.00 95 1013.7
20260510025201 17 140 0.0 0.0 0.00 0.00 0.00 95 1013.6
20260510024659 17 139 0.0 0.0 0.00 0.00 0.00 94 1013.4
20260510024155 17 140 0.0 0.0 0.00 0.00 0.00 95 1013.6
20260510023650 17 139 0.0 0.0 0.00 0.00 0.00 94 1013.4
20260510023148 17 139 0.0 0.0 0.00 0.00 0.00 94 1013.4
20260510022649 17 139 0.0 0.0 0.00 0.00 0.00 94 1013.1
20260510022144 17 139 0.0 0.0 0.00 0.00 0.00 94 1013.2
20260510021640 17 139 0.0 0.0 0.00 0.00 0.00 94 1013.0
20260510021137 17 139 0.0 0.0 0.00 0.00 0.00 93 1012.9
20260510020631 17 139 0.0 0.0 0.00 0.00 0.00 93 1013.0
20260510020127 17 139 0.0 0.0 0.00 0.00 0.00 93 1012.8
20260510015623 17 138 0.0 0.0 0.00 0.00 0.00 93 1012.8
20260510015119 17 139 0.0 0.0 0.00 0.00 0.00 93 1012.7
20260510014615 17 138 0.0 0.0 0.00 0.00 0.00 92 1012.4
20260510014113 18 138 0.0 0.0 0.00 0.00 0.00 91 1012.5
20260510013608 18 139 0.0 0.0 0.00 0.00 0.00 91 1012.2
20260510013104 18 140 0.0 0.0 0.00 0.00 0.00 90 1012.2
20260510012603 18 140 0.0 0.0 0.00 0.00 0.00 90 1012.3
20260510012100 18 140 0.0 0.0 0.00 0.00 0.00 89 1012.1
20260510011559 18 140 0.0 0.0 0.00 0.00 0.00 89 1011.9
20260510011055 19 140 0.0 0.0 0.00 0.00 0.00 88 1011.8
20260510010552 19 139 0.0 0.0 0.00 0.00 0.00 87 1011.5
20260510010049 19 132 0.0 0.0 0.00 0.00 0.00 87 1011.6
20260510005544 19 136 0.0 0.0 0.00 0.00 0.00 86 1012.0
20260510005042 20 137 0.0 0.0 0.00 0.00 0.00 85 1011.5
20260510004540 20 136 0.0 0.0 0.00 0.00 0.00 85 1011.3
20260510004038 20 139 0.0 0.0 0.00 0.00 0.00 84 1011.3
20260510003534 20 139 0.0 0.0 0.00 0.00 0.00 83 1011.3
20260510003035 21 138 0.0 0.0 0.00 0.00 0.00 84 1011.3
20260510002530 21 138 0.0 0.0 0.00 0.00 0.00 83 1011.1
20260510002028 21 138 0.0 0.0 0.00 0.00 0.00 83 1011.3
20260510001525 21 141 0.0 0.0 0.00 0.00 0.00 81 1011.2
20260510001023 21 141 0.0 0.0 0.00 0.00 0.00 80 1011.0
20260510000519 21 143 0.0 0.0 0.00 0.00 0.00 80 1011.1
20260510000016 21 137 0.0 0.0 0.00 0.00 0.00 81 1010.8
20260509235512 22 138 0.0 0.0 0.00 0.00 0.00 80 1011.0
20260509235009 22 138 0.0 0.0 0.00 0.00 0.00 81 1011.1
20260509234505 22 142 0.0 0.0 0.00 0.00 0.00 79 1011.1
20260509234003 22 137 0.0 0.0 0.00 0.00 0.00 81 1010.8
20260509233500 22 137 0.0 0.0 0.00 0.00 0.00 78 1010.8
20260509232956 22 137 0.0 0.0 0.00 0.00 0.00 79 1010.8
20260509232454 22 137 0.0 0.0 0.00 0.00 0.00 78 1010.7
20260509231949 22 131 0.0 0.0 0.00 0.00 0.00 76 1010.7
20260509231446 23 127 1.6 1.6 0.00 0.00 0.00 73 1010.7
20260509230945 23 139 0.0 0.0 0.00 0.00 0.00 73 1010.8
20260509230441 23 140 0.0 0.0 0.00 0.00 0.00 73 1010.9
20260509225937 23 139 0.0 0.0 0.00 0.00 0.00 73 1010.9
20260509225434 23 140 0.0 0.0 0.00 0.00 0.00 72 1010.7
20260509224930 23 141 0.0 0.0 0.00 0.00 0.00 69 1010.7
20260509224425 23 141 0.0 0.0 0.00 0.00 0.00 69 1010.6
20260509223923 23 144 0.0 0.0 0.00 0.00 0.00 71 1010.7
20260509223419 23 142 0.0 0.0 0.00 0.00 0.00 70 1010.6
20260509222916 24 141 0.0 0.0 0.00 0.00 0.00 69 1010.6
20260509222412 24 140 0.0 0.0 0.00 0.00 0.00 67 1010.6
20260509221907 24 141 0.0 0.0 0.00 0.00 0.00 66 1010.6
20260509221405 24 145 0.0 0.0 0.00 0.00 0.00 68 1010.5
20260509220900 24 151 0.0 0.0 0.00 0.00 0.00 67 1010.3